Edwards AFB North Base, CA

10:49 AM PDT on October 23, 2017 (GMT -0700)
Edwards AFB North Base

Weather History for K9L2 - December, 2013

Change the Weather History Date:

Friday, December 13, 2013

  Actual Average (KEDW) Record (KEDW)
Temperature  
Mean Temperature 40 °F -  
Max Temperature 60 °F 56 °F 70 °F (2016)
Min Temperature 19 °F 28 °F 22 °F (2007)
Degree Days  
Heating Degree Days 26    
Moisture  
Dew Point 12 °F    
Average Humidity 40    
Maximum Humidity 65    
Minimum Humidity 14    
Precipitation  
Precipitation 0.00 in - - ()
Sea Level Pressure  
Sea Level Pressure 30.24 in    
Wind  
Wind Speed 4 mph (WNW)    
Max Wind Speed 8 mph    
Max Gust Speed -    
Visibility 10 miles    
Events      
Averages and records for this station are not official NWS values.
T = Trace of Precipitation, MM = Missing Value Source: NWS Daily Summary

Daily Weather History Graph

Daily Weather History Graph

Search for Another Location

Airport or City:

Trip Planner

Search our weather history database for the weather conditions in past years. The results will help you decide how hot, cold, wet, or windy it might be!

Date:

Astronomy

Dec. 13, 2013 Rise Set
Actual Time 6:50 AM PST 4:40 PM PST
Civil Twilight 6:22 AM PST 5:08 PM PST
Nautical Twilight 5:51 AM PST 5:40 PM PST
Astronomical Twilight 5:20 AM PST 6:11 PM PST
Moon 2:21 PM PST (12/13) 3:23 AM PST (12/13)
Length of Visible Light 10h 46m
Length of Day
9h 49m
Waxing Gibbous, 88% of the Moon is Illuminated
Dec 13
Waxing Gibbous
Dec 17
Full
Dec 25
Last Quarter
Jan 1
New
Jan 7
First Quarter

Hourly Weather History & Observations

Time (PST) Temp. Windchill Dew Point Humidity Pressure Visibility Wind Dir Wind Speed Gust Speed Precip Events Conditions
12:55 AM 25.0 °F 20.7 °F 12.0 °F 58% 30.17 in 10.0 mi WNW 3.5 mph - N/A   Clear
1:55 AM 25.0 °F 16.3 °F 12.0 °F 58% 30.16 in 10.0 mi NW 8.1 mph - N/A   Clear
2:55 AM 26.1 °F 19.4 °F 12.0 °F 55% 30.17 in 10.0 mi West 5.8 mph - N/A   Clear
3:55 AM 21.9 °F 15.7 °F 10.0 °F 60% 30.15 in 10.0 mi South 4.6 mph - N/A   Clear
4:55 AM 21.9 °F 15.7 °F 10.9 °F 63% 30.17 in 10.0 mi NNE 4.6 mph - N/A   Clear
5:55 AM 19.9 °F 12.1 °F 10.0 °F 65% 30.20 in 10.0 mi North 5.8 mph - N/A   Clear
6:55 AM 21.0 °F 13.4 °F 10.9 °F 65% 30.21 in 10.0 mi West 5.8 mph - N/A   Clear
7:55 AM 30.0 °F - 12.0 °F 47% 30.23 in 10.0 mi Calm Calm - N/A   Clear
8:55 AM 39.0 °F - 12.9 °F 34% 30.25 in 10.0 mi Calm Calm - N/A   Clear
9:55 AM 46.0 °F 44.8 °F 12.9 °F 26% 30.26 in 10.0 mi NW 3.5 mph - N/A   Clear
11:55 AM 53.1 °F - 15.1 °F 22% 30.23 in 10.0 mi South 3.5 mph - N/A   Clear
12:55 PM 55.0 °F - 14.0 °F 20% 30.21 in 10.0 mi SSE 3.5 mph - N/A   Clear
1:55 PM 57.9 °F - 12.0 °F 16% 30.19 in 10.0 mi Calm Calm - N/A   Clear
2:55 PM 60.1 °F - 10.9 °F 14% 30.18 in 10.0 mi Calm Calm - N/A   Clear
3:55 PM 57.9 °F - 15.1 °F 19% 30.19 in 10.0 mi SSW 3.5 mph - N/A   Clear
4:55 PM 50.0 °F - 15.1 °F 25% 30.22 in 10.0 mi Calm Calm - N/A   Clear
5:55 PM 44.1 °F 40.1 °F 12.0 °F 27% 30.25 in 10.0 mi WNW 6.9 mph - N/A   Clear
6:55 PM 39.9 °F - 12.9 °F 33% 30.29 in 10.0 mi Calm Calm - N/A   Clear
7:55 PM 37.0 °F 32.4 °F 12.9 °F 37% 30.31 in 10.0 mi WNW 5.8 mph - N/A   Clear
8:55 PM 34.0 °F - 12.9 °F 42% 30.32 in 10.0 mi Calm Calm - N/A   Clear
9:55 PM 30.9 °F 27.5 °F 12.0 °F 46% 30.34 in 10.0 mi WNW 3.5 mph - N/A   Clear
10:55 PM 30.0 °F - 12.0 °F 47% 30.35 in 10.0 mi Calm Calm - N/A   Clear
11:55 PM 28.9 °F 22.8 °F 12.0 °F 49% 30.36 in 10.0 mi NNW 5.8 mph - N/A   Clear